Weather History for KNKT - January, 2012

Change the Weather History Date:

Friday, January 27, 2012

  Actual Average Record
Temperature  
Mean Temperature 63 °F -  
Max Temperature 71 °F 52 °F 71 °F (2012)
Min Temperature 53 °F 33 °F 21 °F (2000)
Degree Days  
Heating Degree Days 2    
Growing Degree Days 13 (Base 50)    
Moisture  
Dew Point 57 °F    
Average Humidity 74    
Maximum Humidity 87    
Minimum Humidity 42    
Precipitation  
Precipitation 0.09 in - - ()
Sea Level Pressure  
Sea Level Pressure 29.77 in    
Wind  
Wind Speed 13 mph ()    
Max Wind Speed 26 mph    
Max Gust Speed 43 mph    
Visibility 10.0 miles    
Events Rain    
Averages and records for this station are not official NWS values.
T = Trace of Precipitation, MM = Missing Value Source: Averaged Metar Reports

Daily Weather History Graph

Daily Weather History Graph

Search for Another Location

Airport or City:

Trip Planner

Search our weather history database for the weather conditions in past years. The results will help you decide how hot, cold, wet, or windy it might be!

Date:

Astronomy

Jan. 27, 2012 Rise Set
Actual Time 7:09 AM EST 5:30 PM EST
Civil Twilight 6:43 AM EST 5:57 PM EST
Nautical Twilight 6:12 AM EST 6:28 PM EST
Astronomical Twilight 5:42 AM EST 6:58 PM EST
Moon 9:16 AM EST (1/27) 10:05 PM EST (1/27)
Length of Visible Light 11h 14m
Length of Day
10h 21m
Waxing Crescent, 19% of the Moon is Illuminated
Jan 27
Waxing Crescent
Jan 30
First Quarter
Feb 7
Full
Feb 14
Last Quarter
Feb 21
New

Hourly Weather History & Observations

Time (EST) Temp. Dew Point Humidity Pressure Visibility Wind Dir Wind Speed Gust Speed Precip Events Conditions
12:54 AM 66.0 °F 61.0 °F 84% 29.87 in 10.0 mi South 9.2 mph - N/A   Partly Cloudy
1:54 AM 68.0 °F 62.1 °F 81% 29.84 in 10.0 mi South 13.8 mph 21.9 mph N/A   Mostly Cloudy
2:54 AM 69.1 °F 62.1 °F 78% 29.81 in 10.0 mi SSW 15.0 mph 25.3 mph N/A   Mostly Cloudy
3:06 AM 68.0 °F 62.6 °F 83% 29.81 in 10.0 mi South 13.8 mph 24.2 mph N/A   Mostly Cloudy
3:19 AM 68.0 °F 62.6 °F 83% 29.80 in 10.0 mi South 15.0 mph 24.2 mph N/A   Overcast
3:54 AM 69.1 °F 63.0 °F 81% 29.78 in 10.0 mi SSW 15.0 mph 27.6 mph N/A   Overcast
4:03 AM 69.8 °F 62.6 °F 78% 29.78 in 10.0 mi South 15.0 mph 26.5 mph N/A   Overcast
4:54 AM 70.0 °F 63.0 °F 78% 29.75 in 10.0 mi South 17.3 mph 28.8 mph N/A   Overcast
5:42 AM 69.8 °F 64.4 °F 83% 29.74 in 10.0 mi South 15.0 mph 25.3 mph 0.01 in   Overcast
5:54 AM 69.1 °F 64.0 °F 84% 29.74 in 10.0 mi SSW 18.4 mph 29.9 mph 0.01 in   Overcast
6:54 AM 69.1 °F 63.0 °F 81% 29.73 in 10.0 mi SSW 15.0 mph 26.5 mph 0.00 in   Overcast
7:08 AM 69.8 °F 64.4 °F 83% 29.74 in 10.0 mi SSW 18.4 mph 28.8 mph N/A   Overcast
7:54 AM 70.0 °F 63.0 °F 78% 29.73 in 10.0 mi SSW 16.1 mph 26.5 mph N/A   Overcast
8:06 AM 69.8 °F 62.6 °F 78% 29.73 in 10.0 mi SSW 17.3 mph 28.8 mph N/A   Overcast
8:13 AM 69.8 °F 62.6 °F 78% 29.73 in 10.0 mi SSW 19.6 mph 29.9 mph N/A   Overcast
8:39 AM 69.8 °F 62.6 °F 78% 29.72 in 10.0 mi SW 24.2 mph 38.0 mph 0.00 in Rain Light Rain
8:54 AM 69.1 °F 61.0 °F 75% 29.71 in 10.0 mi SW 20.7 mph 33.4 mph 0.00 in Rain Light Rain
9:19 AM 66.2 °F 60.8 °F 83% 29.72 in 10.0 mi SW 25.3 mph 35.7 mph 0.00 in Rain Light Rain
9:54 AM 68.0 °F 61.0 °F 78% 29.69 in 10.0 mi SSW 26.5 mph 42.6 mph 0.00 in   Overcast
10:54 AM 62.1 °F 54.0 °F 75% 29.75 in 10.0 mi West 25.3 mph 40.3 mph 0.00 in Rain Light Rain
11:54 AM 62.1 °F 55.9 °F 80% 29.70 in 10.0 mi WSW 13.8 mph - 0.02 in Rain Light Rain
12:54 PM 61.0 °F 57.0 °F 87% 29.70 in 9.0 mi SW 15.0 mph 21.9 mph 0.05 in Rain Light Rain
1:54 PM 64.0 °F 59.0 °F 84% 29.67 in 10.0 mi SW 13.8 mph 19.6 mph 0.01 in   Mostly Cloudy
2:11 PM 64.4 °F 57.2 °F 77% 29.68 in 10.0 mi WSW 16.1 mph 21.9 mph N/A   Scattered Clouds
2:21 PM 64.4 °F 59.0 °F 83% 29.68 in 10.0 mi SW 13.8 mph - N/A   Mostly Cloudy
2:54 PM 66.0 °F 59.0 °F 78% 29.68 in 10.0 mi SW 11.5 mph - N/A   Mostly Cloudy
3:01 PM 66.2 °F 57.2 °F 73% 29.68 in 10.0 mi WSW 16.1 mph 19.6 mph N/A   Partly Cloudy
3:54 PM 71.1 °F 48.0 °F 44% 29.70 in 10.0 mi WSW 19.6 mph 28.8 mph N/A   Clear
4:54 PM 70.0 °F 46.0 °F 42% 29.74 in 10.0 mi West 15.0 mph 20.7 mph N/A   Clear
5:54 PM 66.0 °F 48.0 °F 52% 29.81 in 10.0 mi West 9.2 mph - N/A   Clear
6:54 PM 63.0 °F 46.9 °F 56% 29.85 in 10.0 mi West 8.1 mph - N/A   Clear
7:54 PM 59.0 °F 45.0 °F 60% 29.89 in 10.0 mi West 4.6 mph - N/A   Clear
8:54 PM 57.9 °F 45.0 °F 62% 29.93 in 10.0 mi West 5.8 mph - N/A   Clear
9:54 PM 57.0 °F 45.0 °F 64% 29.97 in 10.0 mi NNW 4.6 mph - N/A   Clear
10:54 PM 55.0 °F 39.9 °F 57% 30.00 in 10.0 mi NW 6.9 mph - N/A   Clear
11:54 PM 53.1 °F 39.0 °F 59% 30.01 in 10.0 mi NNW 6.9 mph - N/A   Clear